DW6214 Weather Reports


Display with metric or nautical units.
time (UTC)temp
F
wind
direction
speed
MPH
gust
MPH
rain 1hr
in
rain 24hr
in
rain mn
in
humidity
%
barometer
mb
20260507152023 64 325 1.0 5.0 0.00 0.00 0.00 57 1020.8
20260507151028 63 327 2.0 5.0 0.00 0.00 0.00 56 1021.0
20260507150032 63 331 4.0 9.0 0.00 0.00 0.00 56 1021.0
20260507145025 64 323 5.0 11.0 0.00 0.00 0.00 55 1021.1
20260507144052 64 341 7.0 14.0 0.00 0.00 0.00 55 1021.2
20260507143015 64 329 7.0 12.0 0.00 0.00 0.00 54 1021.0
20260507142015 65 319 5.0 10.0 0.00 0.00 0.00 53 1020.9
20260507141045 65 334 5.0 8.0 0.00 0.00 0.00 52 1020.8
20260507140031 65 336 6.0 9.0 0.00 0.00 0.00 51 1020.8
20260507135019 65 317 4.0 10.0 0.00 0.00 0.00 52 1020.7
20260507134028 65 360 7.0 14.0 0.00 0.00 0.00 51 1021.1
20260507133015 66 322 10.0 15.0 0.00 0.00 0.00 52 1021.0
20260507132017 67 331 10.0 13.0 0.00 0.00 0.00 52 1020.7
20260507131044 67 323 4.0 9.0 0.00 0.00 0.00 54 1020.6
20260507130031 68 270 5.0 8.0 0.00 0.00 0.00 53 1020.4
20260507125052 68 330 5.0 10.0 0.00 0.00 0.00 53 1020.4
20260507124017 69 344 6.0 10.0 0.00 0.00 0.00 50 1020.7
20260507123027 70 303 3.0 10.0 0.00 0.00 0.00 52 1020.6
20260507122016 69 331 8.0 12.0 0.00 0.00 0.00 51 1020.7
20260507121022 67 344 8.0 13.0 0.00 0.00 0.00 53 1021.0
20260507120032 68 335 7.0 14.0 0.00 0.00 0.00 52 1021.1
20260507115027 68 325 10.0 14.0 0.00 0.00 0.00 54 1021.1
20260507114017 66 326 8.0 14.0 0.00 0.00 0.00 56 1021.3
20260507113026 66 324 9.0 14.0 0.00 0.00 0.00 55 1021.2
20260507112016 67 331 10.0 12.0 0.00 0.00 0.00 55 1021.3
20260507111024 66 306 3.0 9.0 0.00 0.00 0.00 57 1021.0
20260507110032 66 325 7.0 12.0 0.00 0.00 0.00 56 1021.1
20260507105019 66 339 3.0 6.0 0.00 0.00 0.00 54 1021.0
20260507104019 67 350 4.0 9.0 0.00 0.00 0.00 54 1021.0
20260507103027 67 340 3.0 9.0 0.00 0.00 0.00 50 1021.2
20260507102016 67 327 4.0 10.0 0.00 0.00 0.00 53 1021.4
20260507101025 68 342 3.0 8.0 0.00 0.00 0.00 53 1021.2
20260507100032 67 309 3.0 11.0 0.00 0.00 0.00 51 1021.3
20260507095025 67 321 6.0 11.0 0.00 0.00 0.00 52 1021.2
20260507094013 67 313 3.0 9.0 0.00 0.00 0.00 51 1021.2
20260507093040 66 323 4.0 11.0 0.00 0.00 0.00 53 1021.2
20260507092027 66 312 5.0 9.0 0.00 0.00 0.00 52 1021.3
20260507091033 65 325 6.0 9.0 0.00 0.00 0.00 52 1021.0
20260507090033 66 346 4.0 9.0 0.00 0.00 0.00 52 1021.1
20260507085027 66 343 5.0 10.0 0.00 0.00 0.00 51 1021.0
20260507084013 67 315 5.0 9.0 0.00 0.00 0.00 50 1021.1
20260507083020 65 330 5.0 10.0 0.00 0.00 0.00 51 1021.1
20260507082038 66 295 4.0 11.0 0.00 0.00 0.00 49 1021.1
20260507081026 67 263 6.0 8.0 0.00 0.00 0.00 44 1021.1
20260507080032 67 346 5.0 9.0 0.00 0.00 0.00 44 1021.0
20260507075017 66 318 3.0 8.0 0.00 0.00 0.00 43 1020.7
20260507074026 67 331 2.0 4.0 0.00 0.00 0.00 43 1020.5
20260507073015 65 331 3.0 4.0 0.00 0.00 0.00 46 1020.9
20260507072019 65 17 1.0 3.0 0.00 0.00 0.00 45 1020.9
20260507071028 64 17 0.0 2.0 0.00 0.00 0.00 49 1020.8
20260507070032 63 17 0.0 0.0 0.00 0.00 0.00 62 1020.7
20260507065018 60 17 0.0 0.0 0.00 0.00 0.00 63 1021.0
20260507064026 58 17 0.0 0.0 0.00 0.00 0.00 67 1021.0
20260507063015 57 17 0.0 0.0 0.00 0.00 0.00 62 1021.0
20260507062019 56 17 0.0 0.0 0.00 0.00 0.00 64 1021.0
20260507061022 55 17 0.0 0.0 0.00 0.00 0.00 64 1021.0
20260507060031 54 17 0.0 0.0 0.00 0.00 0.00 68 1021.0
20260507055028 53 17 0.0 0.0 0.00 0.00 0.00 70 1021.0
20260507054016 52 17 0.0 0.0 0.00 0.00 0.00 69 1021.0
20260507053026 51 17 0.0 0.0 0.00 0.00 0.00 66 1021.0
20260507052012 50 17 0.0 0.0 0.00 0.00 0.00 72 1020.7
20260507051042 48 17 0.0 0.0 0.00 0.00 0.00 75 1020.6
20260507050032 49 17 0.0 0.0 0.00 0.00 0.00 73 1020.5
20260507045013 47 17 0.0 0.0 0.00 0.00 0.00 77 1020.3
20260507044019 46 17 0.0 0.0 0.00 0.00 0.00 77 1020.3
20260507043028 45 17 0.0 0.0 0.00 0.00 0.00 77 1020.1
20260507042016 45 17 0.0 0.0 0.00 0.00 0.00 78 1020.0
20260507041022 44 17 0.0 0.0 0.00 0.00 0.00 79 1019.9
20260507040031 45 17 0.0 0.0 0.00 0.00 0.00 78 1019.8
20260507035013 45 17 0.0 0.0 0.00 0.00 0.00 78 1019.8
20260507034019 45 17 1.0 2.0 0.00 0.00 0.00 78 1019.8
20260507033029 44 17 0.0 0.0 0.00 0.00 0.00 78 1019.8
20260507032037 45 17 0.0 0.0 0.00 0.00 0.00 77 1020.0
20260507031026 45 17 0.0 1.0 0.00 0.00 0.00 75 1019.9
20260507030032 45 17 0.0 0.0 0.00 0.00 0.00 77 1019.9
20260507025027 44 15 0.0 2.0 0.00 0.00 0.00 78 1020.0
20260507024016 45 14 2.0 6.0 0.00 0.00 0.00 75 1020.0
20260507023046 45 142 1.0 3.0 0.00 0.00 0.00 77 1019.9
20260507022013 44 60 1.0 2.0 0.00 0.00 0.00 78 1020.2
20260507021022 44 60 1.0 2.0 0.00 0.00 0.00 78 1020.1
20260507020031 44 60 1.0 3.0 0.00 0.00 0.00 78 1020.2
20260507015028 44 59 2.0 3.0 0.00 0.00 0.00 78 1020.3
20260507014038 45 54 1.0 3.0 0.00 0.00 0.00 75 1020.3
20260507013025 44 53 0.0 2.0 0.00 0.00 0.00 76 1020.5
20260507012013 45 53 0.0 3.0 0.00 0.00 0.00 75 1020.2
20260507010032 46 53 2.0 3.0 0.00 0.00 0.00 72 1020.2
20260507005013 47 57 0.0 4.0 0.00 0.00 0.00 71 1020.0
20260507004039 47 136 1.0 5.0 0.00 0.00 0.00 69 1019.8
20260507003047 48 157 1.0 6.0 0.00 0.00 0.00 68 1019.6
20260507002015 47 128 2.0 5.0 0.00 0.00 0.00 69 1019.7
20260507001022 47 121 0.0 3.0 0.00 0.00 0.00 68 1020.2
20260507000031 48 121 1.0 2.0 0.00 0.00 0.00 67 1020.3
20260506235027 47 121 1.0 1.0 0.00 0.00 0.00 67 1020.6
20260506234016 46 121 0.0 1.0 0.00 0.00 0.00 70 1020.3
20260506233026 46 121 0.0 0.0 0.00 0.00 0.00 69 1020.3
20260506232015 45 121 0.0 0.0 0.00 0.00 0.00 73 1020.5
20260506231043 45 121 0.0 1.0 0.00 0.00 0.00 72 1020.5
20260506230031 47 121 1.0 2.0 0.00 0.00 0.00 68 1020.6
20260506225018 46 121 0.0 1.0 0.00 0.00 0.00 68 1020.5
20260506224025 47 121 1.0 3.0 0.00 0.00 0.00 68 1020.6
20260506223035 47 121 0.0 1.0 0.00 0.00 0.00 68 1020.8
20260506222020 47 121 0.0 2.0 0.00 0.00 0.00 67 1020.6
20260506221021 48 121 0.0 1.0 0.00 0.00 0.00 67 1020.6
20260506220052 48 121 0.0 2.0 0.00 0.00 0.00 66 1020.5
20260506215032 48 121 1.0 3.0 0.00 0.00 0.00 66 1020.5
20260506214017 49 121 0.0 6.0 0.00 0.00 0.00 66 1020.7
20260506213027 50 115 2.0 4.0 0.00 0.00 0.00 61 1020.7
20260506212016 49 113 3.0 4.0 0.00 0.00 0.00 64 1020.8
20260506211024 49 115 0.0 1.0 0.00 0.00 0.00 63 1020.8
20260506210032 49 115 1.0 2.0 0.00 0.00 0.00 64 1021.2
20260506205013 49 115 0.0 0.0 0.00 0.00 0.00 65 1021.1
20260506204018 49 115 0.0 0.0 0.00 0.00 0.00 65 1021.2
20260506203027 48 115 0.0 1.0 0.00 0.00 0.00 66 1021.2
20260506202037 49 115 0.0 2.0 0.00 0.00 0.00 62 1021.1
20260506201023 50 115 0.0 1.0 0.00 0.00 0.00 60 1021.0
20260506200032 49 115 0.0 3.0 0.00 0.00 0.00 63 1021.0
20260506195012 49 115 0.0 0.0 0.00 0.00 0.00 65 1021.0
20260506194019 50 115 0.0 2.0 0.00 0.00 0.00 60 1021.1
20260506193027 50 115 0.0 1.0 0.00 0.00 0.00 60 1021.3
20260506192014 51 115 1.0 3.0 0.00 0.00 0.00 58 1021.1
20260506191022 51 115 2.0 4.0 0.00 0.00 0.00 58 1021.1
20260506190052 51 90 1.0 2.0 0.00 0.00 0.00 63 1021.1
20260506185018 52 90 0.0 2.0 0.00 0.00 0.00 61 1020.9
20260506184025 52 90 1.0 2.0 0.00 0.00 0.00 63 1020.9
20260506183032 53 90 1.0 3.0 0.00 0.00 0.00 61 1020.7
20260506182041 53 89 2.0 4.0 0.00 0.00 0.00 62 1020.7
20260506181022 53 123 2.0 4.0 0.00 0.00 0.00 62 1020.6
20260506180032 53 68 0.0 0.0 0.00 0.00 0.00 63 1020.4
20260506175031 54 68 0.0 2.0 0.00 0.00 0.00 61 1020.4
20260506174018 54 67 1.0 3.0 0.00 0.00 0.00 59 1020.1
20260506173027 55 67 0.0 1.0 0.00 0.00 0.00 57 1020.1
20260506172014 56 67 1.0 3.0 0.00 0.00 0.00 57 1020.1
20260506171023 56 340 0.0 2.0 0.00 0.00 0.00 56 1020.1
20260506170033 57 340 0.0 0.0 0.00 0.00 0.00 54 1019.9
20260506165017 59 340 1.0 4.0 0.00 0.00 0.00 49 1019.9
20260506164039 60 341 3.0 5.0 0.00 0.00 0.00 45 1019.7
20260506163027 60 329 2.0 4.0 0.00 0.00 0.00 45 1019.7
20260506162016 60 323 3.0 5.0 0.00 0.00 0.00 44 1019.7
20260506161023 61 329 3.0 6.0 0.00 0.00 0.00 43 1019.7
20260506160053 61 327 1.0 5.0 0.00 0.00 0.00 45 1019.7
20260506155021 62 252 3.0 7.0 0.00 0.00 0.00 44 1019.8
20260506154028 62 317 3.0 8.0 0.00 0.00 0.00 45 1019.8
20260506153016 62 330 4.0 11.0 0.00 0.00 0.00 45 1019.9